| time (UTC) | temp F | wind direction | speed MPH | gust MPH | rain 1hr in | rain 24hr in | rain mn in | humidity % | barometer mb |
| 20260504220047 | 79 | 271 | 2.0 | 9.0 | 0.00 | 0.00 | 0.00 | 41 | 1010.3 |
| 20260504214547 | 79 | 173 | 3.0 | 10.0 | 0.00 | 0.00 | 0.00 | 38 | 1010.3 |
| 20260504213045 | 79 | 265 | 3.0 | 15.0 | 0.00 | 0.00 | 0.00 | 39 | 1010.4 |
| 20260504211600 | 80 | 245 | 2.0 | 10.0 | 0.00 | 0.00 | 0.00 | 40 | 1010.3 |
| 20260504210047 | 80 | 273 | 1.0 | 15.0 | 0.00 | 0.00 | 0.00 | 40 | 1010.5 |
| 20260504204540 | 80 | 144 | 3.0 | 9.0 | 0.00 | 0.00 | 0.00 | 39 | 1010.7 |
| 20260504203046 | 81 | 234 | 2.0 | 12.0 | 0.00 | 0.00 | 0.00 | 39 | 1010.9 |
| 20260504201544 | 81 | 238 | 2.0 | 11.0 | 0.00 | 0.00 | 0.00 | 40 | 1011.0 |
| 20260504200041 | 80 | 168 | 2.0 | 12.0 | 0.00 | 0.00 | 0.00 | 40 | 1011.5 |
| 20260504194553 | 80 | 210 | 4.0 | 11.0 | 0.00 | 0.00 | 0.00 | 39 | 1011.8 |
| 20260504193046 | 81 | 154 | 3.0 | 16.0 | 0.00 | 0.00 | 0.00 | 38 | 1012.0 |
| 20260504191609 | 80 | 0 | 2.0 | 10.0 | 0.00 | 0.00 | 0.00 | 39 | 1011.9 |
| 20260504190041 | 81 | 263 | 3.0 | 11.0 | 0.00 | 0.00 | 0.00 | 37 | 1012.2 |
| 20260504184550 | 81 | 240 | 3.0 | 10.0 | 0.00 | 0.00 | 0.00 | 39 | 1012.3 |
| 20260504183047 | 80 | 180 | 3.0 | 11.0 | 0.00 | 0.00 | 0.00 | 41 | 1012.4 |
| 20260504181547 | 79 | 319 | 3.0 | 8.0 | 0.00 | 0.00 | 0.00 | 43 | 1012.8 |
| 20260504180047 | 79 | 263 | 2.0 | 10.0 | 0.00 | 0.00 | 0.00 | 42 | 1013.1 |
| 20260504174542 | 80 | 248 | 4.0 | 10.0 | 0.00 | 0.00 | 0.00 | 41 | 1013.2 |
| 20260504173043 | 80 | 182 | 2.0 | 9.0 | 0.00 | 0.00 | 0.00 | 42 | 1013.3 |
| 20260504171543 | 79 | 173 | 3.0 | 13.0 | 0.00 | 0.00 | 0.00 | 43 | 1013.6 |
| 20260504081546 | 62 | 0 | 0.0 | 3.0 | 0.00 | 0.00 | 0.00 | 65 | 1014.4 |
| 20260504044546 | 60 | 0 | 0.0 | 0.0 | 0.00 | 0.00 | 0.00 | 64 | 1015.9 |
| 20260504043043 | 60 | 0 | 0.0 | 0.0 | 0.00 | 0.00 | 0.00 | 63 | 1015.9 |
| 20260504041544 | 60 | 0 | 0.0 | 0.0 | 0.00 | 0.00 | 0.00 | 62 | 1016.0 |
| 20260504040046 | 60 | 0 | 0.0 | 1.0 | 0.00 | 0.00 | 0.00 | 62 | 1016.0 |
| 20260504034553 | 61 | 0 | 0.0 | 0.0 | 0.00 | 0.00 | 0.00 | 61 | 1016.0 |
| 20260504033056 | 61 | 0 | 0.0 | 0.0 | 0.00 | 0.00 | 0.00 | 60 | 1016.1 |
| 20260504031600 | 62 | 0 | 0.0 | 0.0 | 0.00 | 0.00 | 0.00 | 59 | 1016.3 |
| 20260504030109 | 62 | 0 | 0.0 | 0.0 | 0.00 | 0.00 | 0.00 | 57 | 1016.4 |
| 20260504024549 | 63 | 0 | 0.0 | 0.0 | 0.00 | 0.00 | 0.00 | 55 | 1016.2 |
| 20260504023041 | 63 | 0 | 0.0 | 0.0 | 0.00 | 0.00 | 0.00 | 55 | 1016.2 |
| 20260504021548 | 64 | 0 | 0.0 | 0.0 | 0.00 | 0.00 | 0.00 | 52 | 1016.1 |
| 20260504020048 | 65 | 0 | 0.0 | 0.0 | 0.00 | 0.00 | 0.00 | 50 | 1016.1 |
| 20260504014549 | 66 | 0 | 0.0 | 0.0 | 0.00 | 0.00 | 0.00 | 48 | 1016.0 |
| 20260504013044 | 67 | 0 | 0.0 | 0.0 | 0.00 | 0.00 | 0.00 | 47 | 1015.9 |
| 20260504011542 | 68 | 0 | 0.0 | 1.0 | 0.00 | 0.00 | 0.00 | 46 | 1015.7 |
| 20260504010043 | 69 | 0 | 0.0 | 0.0 | 0.00 | 0.00 | 0.00 | 44 | 1015.7 |
| 20260504004541 | 70 | 0 | 0.0 | 1.0 | 0.00 | 0.00 | 0.00 | 43 | 1015.9 |
| 20260504003047 | 71 | 0 | 0.0 | 1.0 | 0.00 | 0.00 | 0.00 | 42 | 1015.7 |
| 20260504001550 | 71 | 0 | 0.0 | 2.0 | 0.00 | 0.00 | 0.00 | 40 | 1015.9 |
| 20260504000113 | 72 | 0 | 0.0 | 3.0 | 0.00 | 0.00 | 0.00 | 40 | 1015.8 |
| 20260503234543 | 73 | 0 | 0.0 | 3.0 | 0.00 | 0.00 | 0.00 | 38 | 1016.0 |
| 20260503233042 | 73 | 0 | 0.0 | 5.0 | 0.00 | 0.00 | 0.00 | 38 | 1016.1 |
| 20260503231541 | 73 | 0 | 0.0 | 7.0 | 0.00 | 0.00 | 0.00 | 38 | 1016.1 |
| 20260503230042 | 73 | 0 | 1.0 | 7.0 | 0.00 | 0.00 | 0.00 | 35 | 1016.1 |
| 20260503224540 | 73 | 0 | 0.0 | 6.0 | 0.00 | 0.00 | 0.00 | 36 | 1016.4 |
| 20260503223045 | 73 | 267 | 1.0 | 5.0 | 0.00 | 0.00 | 0.00 | 35 | 1016.6 |
| 20260503221543 | 73 | 240 | 1.0 | 5.0 | 0.00 | 0.00 | 0.00 | 36 | 1016.8 |